Regional Weather Roundup
Issued by NWS

Home | Current Version | Previous Version | Text Only | Print | Product List | Glossary Off
Versions: 1 2 3 4 5 6 7 8 9 10 11 12 13 14 15 16 17 18 19 20 21 22 23 24 25 26 27 28 29 30 31 32 33 34 35 36 37 38 39 40 41 42 43 44 45 46 47 48 49 50

384
ASUS45 KSLC 061510
RWRUT

UTAH REGIONAL WEATHER ROUNDUP
NATIONAL WEATHER SERVICE SALT LAKE CITY UT
800 AM MST SAT FEB 06 2016

UTZ001>011-023>025-061600-

NORTHERN UTAH

CITY           SKY/WX    TMP DP  RH WIND       PRES   REMARKS
BRIGHAM CITY   CLOUDY    12   9  86 CALM      30.55R VSB<1/4
HILL AFB       CLEAR     22  11  60 E14       30.51R WCI  10
LOGAN          FOG       11   9  92 CALM      30.51S VSB 3/4
OGDEN          CLEAR     21  16  81 S6        30.52R WCI  13
PROVO AIRPORT  FOG        5   1  85 CALM      30.56R VSB 1/2
SALT LAKE CITY PTCLDY    23  18  81 SE13      30.50F WCI  11
VERNAL         CLOUDY     1  -4  79 CALM      30.55R
WENDOVER       MOCLDY    19  18  93 NE3       30.52R
HEBER CITY     PTCLDY     0  -4  85 CALM      30.53R FOG
WEST JORDAN    CLEAR     23  18  80 S14       30.50F WCI  11

$$

UTZ012>022-026-027-061600-

SOUTHERN/CENTRAL UTAH

CITY           SKY/WX    TMP DP  RH WIND       PRES   REMARKS
BLANDING       PTCLDY    17   9  71 CALM      30.57R
BRYCE CANYON   PTCLDY     2  -2  83 W10       30.48R WCI -14
CEDAR CITY     PTCLDY     8   4  83 CALM      30.47S
DELTA          MOCLDY     2  -1  86 W3        30.54R
HANKSVILLE     CLOUDY    18  14  86 NW6       30.66R WCI   9
MILFORD        FOG       -3  -6  87 SW6       30.52S VSB 1/2 WCI -15
MOAB/CYNLANDS  CLOUDY    16  15  96 NW5       30.61R WCI   9
PRICE          PTCLDY     8   3  80 CALM      30.51R
ST GEORGE      MOSUNNY   28  21  74 CALM      30.55S
KANAB          CLEAR     28  19  69 N12       30.54R WCI  18

$$

REGIONAL REPORTS     COLORADO/ARIZONA

CITY           SKY/WX    TMP DP  RH WIND       PRES   REMARKS
CRAIG, CO      CLOUDY   -11 -15  82 CALM      30.49F
GRAND JUNCTION CLOUDY     2   1  96 CALM      30.60R
RIFLE          CLOUDY     2  -3  80 CALM      30.60R
MONTROSE       CLOUDY     5  -2  72 SE10      30.59S WCI -10
CORTEZ         CLOUDY     8   2  76 E9        30.51R WCI  -5
PAGE, AZ       CLEAR     27  19  72 CALM      30.55R
GRAND CANYON   PTCLDY    10   5  80 CALM      30.47S
KINGMAN        PTCLDY    31  32 100 E7        30.43S WCI  24
FLAGSTAFF      PTCLDY     8   4  83 CALM      30.46R

$$

REGIONAL REPORTS    NEVADA/IDAHO/WYOMING

CITY           SKY/WX    TMP DP  RH WIND       PRES   REMARKS
LAS VEGAS, NV  CLEAR     39  25  57 CALM      30.43R
ELY            PTCLDY     5   0  79 S22       30.48R WCI -16
ELKO           PTCLDY     7   4  87 CALM      30.53R
POCATELLO, ID  CLOUDY    17  15  92 NE6       30.44F WCI   9
BURLEY         CLOUDY    22  19  89 S3        30.40F
EVANSTON, WY   CLOUDY    15  10  80 SW13      30.41F WCI   1
ROCK SPRINGS   CLOUDY    18  12  77 W25       30.38S WCI   0

$$




USA.gov is the U.S. government's official web portal to all federal, state and local government web resources and services.